| time (UTC) | temp F | wind direction | speed MPH | gust MPH | rain 1hr in | rain 24hr in | rain mn in | humidity % | barometer mb |
| 20260506043828 | 45 | 23 | 2.0 | 2.0 | 0.00 | 0.02 | 0.02 | 99 | 1006.0 |
| 20260506043325 | 45 | 21 | 5.0 | 7.0 | 0.05 | 0.02 | 0.02 | 99 | 1006.1 |
| 20260506042823 | 45 | 1 | 5.0 | 6.0 | 0.05 | 0.02 | 0.02 | 99 | 1006.1 |
| 20260506042322 | 45 | 15 | 4.0 | 5.0 | 0.00 | 0.01 | 0.01 | 99 | 1006.0 |
| 20260506041821 | 45 | 14 | 3.0 | 3.0 | 0.00 | 0.01 | 0.01 | 99 | 1006.3 |
| 20260506041317 | 45 | 14 | 7.0 | 9.0 | 0.07 | 0.01 | 0.01 | 99 | 1006.1 |
| 20260506040814 | 46 | 29 | 6.0 | 8.0 | 0.07 | 0.01 | 0.01 | 99 | 1006.3 |
| 20260506040312 | 46 | 356 | 7.0 | 8.0 | 0.05 | 0.00 | 0.00 | 99 | 1006.2 |
| 20260506035808 | 47 | 12 | 6.0 | 7.0 | 0.12 | 1.01 | 1.01 | 99 | 1006.3 |
| 20260506035306 | 47 | 13 | 6.0 | 7.0 | 0.07 | 1.00 | 1.00 | 99 | 1006.3 |
| 20260506034803 | 47 | 7 | 5.0 | 6.0 | 0.05 | 0.99 | 0.99 | 99 | 1006.6 |
| 20260506034259 | 47 | 347 | 3.0 | 5.0 | 0.12 | 0.99 | 0.99 | 99 | 1006.6 |
| 20260506033756 | 47 | 12 | 5.0 | 6.0 | 0.07 | 0.98 | 0.98 | 99 | 1006.6 |
| 20260506033253 | 47 | 356 | 4.0 | 5.0 | 0.05 | 0.97 | 0.97 | 99 | 1006.5 |
| 20260506032750 | 48 | 25 | 4.0 | 6.0 | 0.05 | 0.97 | 0.97 | 99 | 1006.4 |
| 20260506032247 | 48 | 17 | 0.0 | 0.0 | 0.07 | 0.96 | 0.96 | 99 | 1006.9 |
| 20260506031744 | 48 | 3 | 3.0 | 3.0 | 0.12 | 0.96 | 0.96 | 99 | 1006.8 |
| 20260506031241 | 48 | 18 | 2.0 | 2.0 | 0.05 | 0.95 | 0.95 | 99 | 1006.5 |
| 20260506030739 | 48 | 14 | 2.0 | 2.0 | 0.07 | 0.94 | 0.94 | 99 | 1006.4 |
| 20260506030237 | 48 | 7 | 2.0 | 2.0 | 0.14 | 0.94 | 0.94 | 99 | 1006.8 |
| 20260506025733 | 48 | 5 | 0.0 | 0.0 | 0.12 | 0.93 | 0.93 | 99 | 1007.0 |
| 20260506025230 | 48 | 5 | 0.0 | 0.0 | 0.17 | 0.92 | 0.92 | 99 | 1007.0 |
| 20260506024727 | 48 | 5 | 0.0 | 0.0 | 0.19 | 0.91 | 0.91 | 99 | 1006.6 |
| 20260506024223 | 48 | 5 | 0.0 | 0.0 | 0.12 | 0.90 | 0.90 | 99 | 1006.5 |
| 20260506023719 | 48 | 3 | 0.0 | 0.0 | 0.12 | 0.88 | 0.88 | 99 | 1006.6 |
| 20260506023217 | 48 | 308 | 1.0 | 1.0 | 0.12 | 0.87 | 0.87 | 99 | 1007.0 |
| 20260506022713 | 48 | 298 | 2.0 | 2.0 | 0.12 | 0.86 | 0.86 | 99 | 1006.9 |
| 20260506022211 | 48 | 350 | 2.0 | 2.0 | 0.19 | 0.85 | 0.85 | 99 | 1006.5 |
| 20260506021709 | 48 | 15 | 0.0 | 0.0 | 0.17 | 0.84 | 0.84 | 99 | 1006.4 |
| 20260506021206 | 48 | 18 | 1.0 | 1.0 | 0.12 | 0.82 | 0.82 | 99 | 1006.3 |
| 20260506020703 | 48 | 11 | 1.0 | 1.0 | 0.14 | 0.81 | 0.81 | 99 | 1006.4 |
| 20260506020201 | 48 | 12 | 1.0 | 1.0 | 0.12 | 0.80 | 0.80 | 99 | 1006.1 |
| 20260506015658 | 48 | 344 | 1.0 | 1.0 | 0.12 | 0.79 | 0.79 | 99 | 1006.1 |
| 20260506015155 | 48 | 17 | 1.0 | 1.0 | 0.12 | 0.78 | 0.78 | 99 | 1005.9 |
| 20260506014652 | 48 | 24 | 0.0 | 1.0 | 0.12 | 0.77 | 0.77 | 99 | 1005.9 |
| 20260506014148 | 48 | 18 | 3.0 | 3.0 | 0.12 | 0.76 | 0.76 | 99 | 1005.7 |
| 20260506013646 | 48 | 20 | 3.0 | 5.0 | 0.17 | 0.75 | 0.75 | 99 | 1006.0 |
| 20260506013143 | 48 | 19 | 2.0 | 2.0 | 0.19 | 0.74 | 0.74 | 99 | 1006.2 |
| 20260506012639 | 48 | 22 | 1.0 | 1.0 | 0.12 | 0.72 | 0.72 | 99 | 1006.3 |
| 20260506012136 | 48 | 357 | 3.0 | 3.0 | 0.17 | 0.71 | 0.71 | 99 | 1006.1 |
| 20260506011633 | 48 | 354 | 2.0 | 2.0 | 0.19 | 0.70 | 0.70 | 99 | 1006.1 |
| 20260506011129 | 48 | 6 | 4.0 | 5.0 | 0.14 | 0.68 | 0.68 | 99 | 1006.0 |
| 20260506010628 | 48 | 15 | 3.0 | 3.0 | 0.07 | 0.67 | 0.67 | 99 | 1006.0 |
| 20260506010125 | 48 | 3 | 3.0 | 3.0 | 0.17 | 0.66 | 0.66 | 99 | 1006.0 |
| 20260506005622 | 48 | 3 | 3.0 | 3.0 | 0.17 | 0.66 | 0.66 | 99 | 1005.8 |
| 20260506005118 | 48 | 332 | 2.0 | 2.0 | 0.07 | 0.63 | 0.63 | 99 | 1005.7 |
| 20260506004615 | 48 | 20 | 2.0 | 2.0 | 0.12 | 0.63 | 0.63 | 99 | 1005.6 |
| 20260506004112 | 48 | 335 | 1.0 | 2.0 | 0.12 | 0.62 | 0.62 | 99 | 1005.4 |
| 20260506003609 | 48 | 329 | 3.0 | 3.0 | 0.19 | 0.61 | 0.61 | 99 | 1005.9 |
| 20260506003105 | 48 | 49 | 0.0 | 0.0 | 0.24 | 0.60 | 0.60 | 99 | 1005.5 |
| 20260506002601 | 48 | 48 | 1.0 | 1.0 | 0.19 | 0.58 | 0.58 | 99 | 1005.2 |
| 20260506002057 | 48 | 26 | 1.0 | 2.0 | 0.12 | 0.56 | 0.56 | 99 | 1005.5 |
| 20260506001553 | 48 | 26 | 0.0 | 1.0 | 0.12 | 0.55 | 0.55 | 99 | 1005.6 |
| 20260506001050 | 48 | 29 | 0.0 | 0.0 | 0.12 | 0.54 | 0.54 | 99 | 1005.4 |
| 20260506000547 | 48 | 17 | 1.0 | 2.0 | 0.05 | 0.53 | 0.53 | 99 | 1005.6 |
| 20260506000045 | 48 | 13 | 2.0 | 2.0 | 0.00 | 0.52 | 0.52 | 99 | 1005.6 |
| 20260505235543 | 48 | 19 | 1.0 | 1.0 | 0.00 | 0.52 | 0.52 | 99 | 1005.6 |
| 20260505235039 | 48 | 18 | 1.0 | 1.0 | 0.00 | 0.52 | 0.52 | 99 | 1005.5 |
| 20260505234537 | 48 | 28 | 2.0 | 2.0 | 0.00 | 0.52 | 0.52 | 99 | 1005.4 |
| 20260505234033 | 49 | 25 | 3.0 | 3.0 | 0.00 | 0.52 | 0.52 | 99 | 1005.5 |
| 20260505233531 | 49 | 2 | 7.0 | 8.0 | 0.00 | 0.52 | 0.52 | 99 | 1005.4 |
| 20260505233028 | 49 | 29 | 0.0 | 0.0 | 0.07 | 0.52 | 0.52 | 99 | 1005.6 |
| 20260505232526 | 49 | 25 | 5.0 | 5.0 | 0.12 | 0.52 | 0.52 | 99 | 1005.7 |
| 20260505232023 | 50 | 14 | 5.0 | 7.0 | 0.12 | 0.51 | 0.51 | 99 | 1005.6 |
| 20260505231520 | 50 | 5 | 3.0 | 3.0 | 0.12 | 0.50 | 0.50 | 99 | 1005.8 |
| 20260505231019 | 50 | 351 | 7.0 | 9.0 | 0.12 | 0.49 | 0.49 | 99 | 1005.5 |
| 20260505230515 | 50 | 1 | 3.0 | 5.0 | 0.19 | 0.48 | 0.48 | 99 | 1005.7 |
| 20260505230012 | 51 | 339 | 4.0 | 6.0 | 0.17 | 0.47 | 0.47 | 99 | 1005.9 |
| 20260505225509 | 51 | 338 | 3.0 | 6.0 | 0.19 | 0.45 | 0.45 | 99 | 1005.7 |
| 20260505225005 | 51 | 301 | 2.0 | 2.0 | 0.42 | 0.44 | 0.44 | 99 | 1005.9 |
| 20260505224502 | 52 | 347 | 3.0 | 5.0 | 0.59 | 0.41 | 0.41 | 99 | 1005.9 |
| 20260505223959 | 52 | 18 | 7.0 | 8.0 | 0.50 | 0.37 | 0.37 | 99 | 1005.7 |
| 20260505223456 | 52 | 26 | 5.0 | 6.0 | 0.19 | 0.31 | 0.31 | 99 | 1005.4 |
| 20260505222952 | 52 | 26 | 5.0 | 7.0 | 0.05 | 0.29 | 0.29 | 99 | 1005.2 |
| 20260505222449 | 53 | 11 | 8.0 | 8.0 | 0.07 | 0.28 | 0.28 | 99 | 1005.2 |
| 20260505221944 | 55 | 20 | 6.0 | 8.0 | 0.07 | 0.28 | 0.28 | 99 | 1005.1 |
| 20260505221442 | 56 | 18 | 0.0 | 1.0 | 0.12 | 0.27 | 0.27 | 99 | 1004.8 |
| 20260505220939 | 56 | 336 | 1.0 | 1.0 | 0.12 | 0.27 | 0.27 | 99 | 1005.2 |
| 20260505220436 | 56 | 344 | 0.0 | 0.0 | 0.00 | 0.25 | 0.25 | 99 | 1005.2 |
| 20260505215934 | 56 | 322 | 0.0 | 1.0 | 0.00 | 0.25 | 0.25 | 99 | 1005.2 |
| 20260505215432 | 56 | 278 | 0.0 | 0.0 | 0.00 | 0.25 | 0.25 | 99 | 1005.2 |
| 20260505214929 | 56 | 276 | 0.0 | 0.0 | 0.00 | 0.25 | 0.25 | 99 | 1005.2 |
| 20260505214427 | 56 | 265 | 0.0 | 0.0 | 0.00 | 0.25 | 0.25 | 99 | 1005.2 |
| 20260505213924 | 56 | 301 | 0.0 | 0.0 | 0.05 | 0.25 | 0.25 | 99 | 1005.1 |
| 20260505213421 | 56 | 286 | 0.0 | 0.0 | 0.05 | 0.25 | 0.25 | 99 | 1005.2 |
| 20260505212917 | 56 | 300 | 0.0 | 0.0 | 0.00 | 0.24 | 0.24 | 99 | 1004.9 |
| 20260505212414 | 56 | 301 | 0.0 | 0.0 | 0.00 | 0.24 | 0.24 | 99 | 1005.1 |
| 20260505211911 | 56 | 290 | 0.0 | 0.0 | 0.07 | 0.24 | 0.24 | 99 | 1005.1 |
| 20260505211409 | 56 | 289 | 0.0 | 0.0 | 0.07 | 0.24 | 0.24 | 99 | 1005.2 |
| 20260505210904 | 56 | 288 | 0.0 | 0.0 | 0.00 | 0.23 | 0.23 | 99 | 1005.0 |
| 20260505210402 | 56 | 283 | 0.0 | 0.0 | 0.12 | 0.23 | 0.23 | 99 | 1005.3 |
| 20260505205859 | 56 | 295 | 1.0 | 1.0 | 0.47 | 0.23 | 0.23 | 98 | 1005.4 |
| 20260505205357 | 56 | 262 | 2.0 | 2.0 | 0.47 | 0.21 | 0.21 | 98 | 1005.4 |
| 20260505204853 | 57 | 280 | 3.0 | 3.0 | 0.35 | 0.15 | 0.15 | 97 | 1005.6 |
| 20260505204351 | 57 | 325 | 0.0 | 0.0 | 0.50 | 0.13 | 0.13 | 97 | 1005.2 |
| 20260505203848 | 57 | 309 | 0.0 | 0.0 | 0.31 | 0.09 | 0.09 | 96 | 1005.3 |
| 20260505203344 | 57 | 315 | 0.0 | 0.0 | 0.05 | 0.05 | 0.05 | 95 | 1005.2 |
| 20260505202841 | 57 | 336 | 1.0 | 1.0 | 0.07 | 0.04 | 0.04 | 95 | 1005.1 |
| 20260505202337 | 58 | 333 | 0.0 | 0.0 | 0.12 | 0.04 | 0.04 | 95 | 1005.0 |
| 20260505201834 | 58 | 333 | 0.0 | 0.0 | 0.05 | 0.03 | 0.03 | 94 | 1005.0 |
| 20260505201332 | 57 | 318 | 0.0 | 0.0 | 0.00 | 0.02 | 0.02 | 94 | 1005.1 |
| 20260505200830 | 57 | 316 | 1.0 | 2.0 | 0.00 | 0.02 | 0.02 | 94 | 1005.3 |
| 20260505200326 | 57 | 303 | 1.0 | 2.0 | 0.00 | 0.02 | 0.02 | 94 | 1005.4 |
| 20260505195822 | 57 | 301 | 1.0 | 2.0 | 0.00 | 0.02 | 0.02 | 94 | 1005.2 |
| 20260505195319 | 58 | 297 | 2.0 | 3.0 | 0.00 | 0.02 | 0.02 | 94 | 1005.3 |
| 20260505194816 | 58 | 322 | 3.0 | 3.0 | 0.00 | 0.02 | 0.02 | 93 | 1005.2 |
| 20260505194314 | 58 | 309 | 2.0 | 2.0 | 0.00 | 0.02 | 0.02 | 93 | 1005.3 |
| 20260505193808 | 58 | 301 | 3.0 | 3.0 | 0.00 | 0.02 | 0.02 | 92 | 1005.3 |
| 20260505193307 | 59 | 292 | 3.0 | 5.0 | 0.07 | 0.02 | 0.02 | 90 | 1005.3 |
| 20260505192805 | 60 | 293 | 3.0 | 5.0 | 0.00 | 0.01 | 0.01 | 86 | 1005.3 |
| 20260505192305 | 61 | 274 | 3.0 | 3.0 | 0.00 | 0.01 | 0.01 | 82 | 1005.3 |
| 20260505191800 | 62 | 266 | 1.0 | 1.0 | 0.00 | 0.01 | 0.01 | 80 | 1005.1 |
| 20260505191258 | 62 | 300 | 2.0 | 2.0 | 0.00 | 0.01 | 0.01 | 79 | 1005.2 |
| 20260505190754 | 62 | 263 | 1.0 | 2.0 | 0.00 | 0.01 | 0.01 | 79 | 1005.2 |
| 20260505190249 | 62 | 285 | 3.0 | 3.0 | 0.00 | 0.01 | 0.01 | 78 | 1005.1 |
| 20260505185746 | 63 | 256 | 1.0 | 2.0 | 0.00 | 0.01 | 0.01 | 77 | 1005.1 |
| 20260505185243 | 63 | 263 | 1.0 | 2.0 | 0.00 | 0.01 | 0.01 | 76 | 1005.2 |
| 20260505184738 | 63 | 266 | 2.0 | 2.0 | 0.00 | 0.01 | 0.01 | 75 | 1005.3 |
| 20260505184236 | 63 | 298 | 4.0 | 5.0 | 0.00 | 0.01 | 0.01 | 75 | 1005.3 |
| 20260505183733 | 63 | 207 | 6.0 | 7.0 | 0.00 | 0.01 | 0.01 | 75 | 1005.5 |
| 20260505183230 | 63 | 228 | 4.0 | 6.0 | 0.00 | 0.01 | 0.01 | 75 | 1005.4 |
| 20260505182726 | 63 | 252 | 2.0 | 2.0 | 0.00 | 0.01 | 0.01 | 75 | 1005.3 |
| 20260505182223 | 63 | 245 | 2.0 | 2.0 | 0.00 | 0.01 | 0.01 | 74 | 1005.5 |
| 20260505181720 | 63 | 245 | 1.0 | 1.0 | 0.00 | 0.01 | 0.01 | 74 | 1005.4 |
| 20260505181217 | 63 | 260 | 2.0 | 2.0 | 0.00 | 0.01 | 0.01 | 75 | 1005.3 |
| 20260505180714 | 63 | 270 | 4.0 | 6.0 | 0.00 | 0.01 | 0.01 | 73 | 1005.4 |
| 20260505180210 | 63 | 257 | 3.0 | 5.0 | 0.00 | 0.01 | 0.01 | 75 | 1005.3 |
| 20260505175706 | 63 | 300 | 3.0 | 3.0 | 0.00 | 0.01 | 0.01 | 75 | 1005.3 |
| 20260505175203 | 63 | 288 | 2.0 | 2.0 | 0.00 | 0.01 | 0.01 | 75 | 1005.3 |
| 20260505174700 | 63 | 281 | 4.0 | 5.0 | 0.00 | 0.01 | 0.01 | 74 | 1005.2 |
| 20260505174156 | 63 | 308 | 3.0 | 3.0 | 0.00 | 0.01 | 0.01 | 74 | 1005.1 |
| 20260505173653 | 64 | 296 | 7.0 | 8.0 | 0.00 | 0.01 | 0.01 | 73 | 1005.2 |
| 20260505173150 | 64 | 274 | 5.0 | 5.0 | 0.00 | 0.01 | 0.01 | 71 | 1005.2 |
| 20260505172647 | 64 | 304 | 6.0 | 7.0 | 0.00 | 0.01 | 0.01 | 71 | 1005.4 |
| 20260505172144 | 64 | 257 | 7.0 | 10.0 | 0.00 | 0.01 | 0.01 | 70 | 1005.2 |
| 20260505171643 | 64 | 278 | 4.0 | 5.0 | 0.00 | 0.01 | 0.01 | 70 | 1005.1 |
| 20260505171141 | 65 | 229 | 3.0 | 5.0 | 0.00 | 0.01 | 0.01 | 70 | 1005.3 |
| 20260505170638 | 65 | 243 | 3.0 | 5.0 | 0.00 | 0.01 | 0.01 | 70 | 1005.2 |
| 20260505170135 | 65 | 260 | 1.0 | 1.0 | 0.00 | 0.01 | 0.01 | 70 | 1005.2 |
| 20260505165635 | 65 | 294 | 7.0 | 8.0 | 0.00 | 0.01 | 0.01 | 68 | 1005.2 |
| 20260505165131 | 65 | 218 | 3.0 | 3.0 | 0.00 | 0.01 | 0.01 | 69 | 1005.0 |
| 20260505164627 | 65 | 252 | 3.0 | 3.0 | 0.00 | 0.01 | 0.01 | 69 | 1005.3 |
| 20260505164125 | 65 | 278 | 3.0 | 3.0 | 0.00 | 0.01 | 0.01 | 69 | 1005.1 |
| 20260505163623 | 65 | 281 | 4.0 | 5.0 | 0.00 | 0.01 | 0.01 | 68 | 1005.0 |
| 20260505163120 | 65 | 275 | 3.0 | 5.0 | 0.00 | 0.01 | 0.01 | 68 | 1005.2 |
| 20260505162617 | 65 | 290 | 5.0 | 6.0 | 0.00 | 0.01 | 0.01 | 68 | 1005.0 |
| 20260505162115 | 65 | 282 | 7.0 | 8.0 | 0.00 | 0.01 | 0.01 | 67 | 1005.3 |
| 20260505161612 | 66 | 244 | 7.0 | 9.0 | 0.00 | 0.01 | 0.01 | 66 | 1005.2 |
| 20260505161109 | 66 | 298 | 5.0 | 6.0 | 0.00 | 0.01 | 0.01 | 66 | 1004.9 |
| 20260505160607 | 66 | 217 | 9.0 | 11.0 | 0.00 | 0.01 | 0.01 | 65 | 1005.2 |
| 20260505160104 | 67 | 221 | 8.0 | 14.0 | 0.00 | 0.01 | 0.01 | 65 | 1005.1 |
| 20260505153043 | 68 | 296 | 5.0 | 8.0 | 0.00 | 0.01 | 0.01 | 63 | 1004.5 |
| 20260505152540 | 68 | 213 | 2.0 | 2.0 | 0.00 | 0.01 | 0.01 | 64 | 1004.1 |
| 20260505152036 | 67 | 272 | 3.0 | 3.0 | 0.00 | 0.01 | 0.01 | 64 | 1004.1 |
| 20260505151531 | 67 | 220 | 3.0 | 5.0 | 0.00 | 0.01 | 0.01 | 65 | 1004.0 |
| 20260505151029 | 67 | 217 | 5.0 | 7.0 | 0.00 | 0.01 | 0.01 | 65 | 1003.9 |
| 20260505150525 | 66 | 250 | 4.0 | 7.0 | 0.00 | 0.01 | 0.01 | 65 | 1004.2 |
| 20260505140450 | 64 | 225 | 9.0 | 10.0 | 0.00 | 0.01 | 0.01 | 72 | 1003.9 |
| 20260505124903 | 60 | 218 | 7.0 | 9.0 | 0.00 | 0.01 | 0.01 | 79 | 1004.1 |
| 20260505124401 | 60 | 216 | 5.0 | 7.0 | 0.00 | 0.01 | 0.01 | 79 | 1004.1 |
| 20260505123856 | 60 | 254 | 3.0 | 5.0 | 0.00 | 0.01 | 0.01 | 80 | 1004.2 |
| 20260505123353 | 60 | 229 | 2.0 | 2.0 | 0.00 | 0.01 | 0.01 | 79 | 1004.1 |
| 20260505122849 | 60 | 219 | 5.0 | 7.0 | 0.00 | 0.01 | 0.01 | 79 | 1003.9 |
| 20260505122347 | 60 | 209 | 6.0 | 7.0 | 0.00 | 0.01 | 0.01 | 79 | 1003.9 |
| 20260505121843 | 60 | 219 | 2.0 | 2.0 | 0.00 | 0.01 | 0.01 | 79 | 1003.9 |
| 20260505121340 | 60 | 211 | 6.0 | 7.0 | 0.00 | 0.01 | 0.01 | 78 | 1003.8 |
| 20260505120836 | 60 | 235 | 5.0 | 7.0 | 0.00 | 0.01 | 0.01 | 77 | 1003.6 |
| 20260505120332 | 60 | 246 | 7.0 | 8.0 | 0.00 | 0.01 | 0.01 | 77 | 1003.5 |
| 20260505115831 | 61 | 234 | 13.0 | 17.0 | 0.00 | 0.01 | 0.01 | 76 | 1003.4 |
| 20260505115329 | 61 | 196 | 7.0 | 11.0 | 0.00 | 0.01 | 0.01 | 75 | 1003.2 |
| 20260505114827 | 60 | 193 | 7.0 | 9.0 | 0.00 | 0.01 | 0.01 | 75 | 1002.7 |
| 20260505114323 | 60 | 223 | 6.0 | 9.0 | 0.00 | 0.01 | 0.01 | 78 | 1002.5 |
| 20260505113819 | 60 | 211 | 3.0 | 3.0 | 0.00 | 0.01 | 0.01 | 77 | 1002.5 |
| 20260505113316 | 60 | 205 | 7.0 | 8.0 | 0.00 | 0.01 | 0.01 | 76 | 1002.4 |
| 20260505112811 | 60 | 222 | 4.0 | 7.0 | 0.00 | 0.01 | 0.01 | 77 | 1002.4 |
| 20260505112309 | 59 | 229 | 6.0 | 7.0 | 0.00 | 0.01 | 0.01 | 78 | 1002.5 |
| 20260505111805 | 58 | 233 | 5.0 | 7.0 | 0.00 | 0.01 | 0.01 | 81 | 1002.5 |
| 20260505111300 | 58 | 228 | 3.0 | 3.0 | 0.05 | 0.01 | 0.01 | 85 | 1002.7 |
| 20260505110756 | 59 | 222 | 8.0 | 10.0 | 0.05 | 0.01 | 0.01 | 82 | 1002.7 |
| 20260505110254 | 60 | 243 | 7.0 | 9.0 | 0.00 | 0.00 | 0.00 | 79 | 1002.7 |
| 20260505101728 | 63 | 178 | 7.0 | 10.0 | 0.00 | 0.00 | 0.00 | 69 | 1002.4 |
| 20260505101224 | 63 | 199 | 5.0 | 6.0 | 0.00 | 0.00 | 0.00 | 69 | 1002.4 |
| 20260505100721 | 63 | 224 | 3.0 | 3.0 | 0.00 | 0.00 | 0.00 | 69 | 1002.3 |
| 20260505100218 | 63 | 221 | 7.0 | 9.0 | 0.00 | 0.00 | 0.00 | 69 | 1002.4 |
| 20260505095713 | 63 | 253 | 5.0 | 6.0 | 0.00 | 0.00 | 0.00 | 69 | 1002.0 |
| 20260505095211 | 63 | 248 | 5.0 | 7.0 | 0.00 | 0.00 | 0.00 | 69 | 1002.3 |
| 20260505094706 | 64 | 221 | 6.0 | 13.0 | 0.00 | 0.00 | 0.00 | 68 | 1002.1 |
| 20260505094203 | 64 | 274 | 5.0 | 7.0 | 0.00 | 0.00 | 0.00 | 68 | 1001.9 |
| 20260505093659 | 64 | 251 | 6.0 | 8.0 | 0.00 | 0.00 | 0.00 | 67 | 1001.7 |
| 20260505093157 | 64 | 217 | 3.0 | 5.0 | 0.00 | 0.00 | 0.00 | 67 | 1001.6 |
| 20260505092654 | 65 | 233 | 7.0 | 8.0 | 0.00 | 0.00 | 0.00 | 66 | 1001.8 |
| 20260505092152 | 65 | 254 | 6.0 | 8.0 | 0.00 | 0.00 | 0.00 | 66 | 1001.7 |
| 20260505091649 | 65 | 187 | 7.0 | 9.0 | 0.00 | 0.00 | 0.00 | 65 | 1001.4 |
| 20260505091147 | 65 | 212 | 11.0 | 15.0 | 0.00 | 0.00 | 0.00 | 65 | 1001.3 |
| 20260505090644 | 65 | 220 | 5.0 | 6.0 | 0.00 | 0.00 | 0.00 | 65 | 1001.5 |
| 20260505090143 | 65 | 219 | 4.0 | 5.0 | 0.00 | 0.00 | 0.00 | 64 | 1001.3 |
| 20260505085640 | 66 | 221 | 11.0 | 15.0 | 0.00 | 0.00 | 0.00 | 64 | 1001.3 |
| 20260505085138 | 66 | 218 | 6.0 | 8.0 | 0.00 | 0.00 | 0.00 | 63 | 1001.4 |
| 20260505084635 | 66 | 255 | 7.0 | 8.0 | 0.00 | 0.00 | 0.00 | 63 | 1001.4 |
| 20260505084133 | 66 | 241 | 5.0 | 6.0 | 0.00 | 0.00 | 0.00 | 63 | 1001.4 |
| 20260505083631 | 66 | 221 | 7.0 | 10.0 | 0.00 | 0.00 | 0.00 | 62 | 1001.3 |
| 20260505083127 | 66 | 222 | 7.0 | 7.0 | 0.00 | 0.00 | 0.00 | 62 | 1001.5 |
| 20260505082623 | 66 | 208 | 12.0 | 14.0 | 0.00 | 0.00 | 0.00 | 62 | 1001.5 |
| 20260505082120 | 67 | 260 | 12.0 | 15.0 | 0.00 | 0.00 | 0.00 | 61 | 1001.2 |
| 20260505081616 | 66 | 247 | 14.0 | 18.0 | 0.00 | 0.00 | 0.00 | 63 | 1001.4 |
| 20260505081114 | 66 | 232 | 11.0 | 13.0 | 0.00 | 0.00 | 0.00 | 63 | 1001.4 |
| 20260505080610 | 65 | 221 | 6.0 | 7.0 | 0.00 | 0.00 | 0.00 | 67 | 1001.4 |
| 20260505080106 | 65 | 271 | 9.0 | 17.0 | 0.00 | 0.00 | 0.00 | 66 | 1001.2 |
| 20260505075602 | 64 | 217 | 5.0 | 8.0 | 0.00 | 0.00 | 0.00 | 68 | 1001.2 |
| 20260505075059 | 64 | 272 | 6.0 | 9.0 | 0.00 | 0.00 | 0.00 | 69 | 1000.9 |
| 20260505074556 | 65 | 217 | 6.0 | 8.0 | 0.00 | 0.00 | 0.00 | 68 | 1001.1 |
| 20260505074053 | 64 | 280 | 6.0 | 10.0 | 0.00 | 0.00 | 0.00 | 69 | 1001.0 |
| 20260505073551 | 64 | 256 | 6.0 | 7.0 | 0.00 | 0.00 | 0.00 | 69 | 1001.2 |
| 20260505073049 | 64 | 227 | 3.0 | 3.0 | 0.00 | 0.00 | 0.00 | 71 | 1001.0 |
| 20260505072544 | 64 | 218 | 5.0 | 7.0 | 0.00 | 0.00 | 0.00 | 71 | 1001.1 |
| 20260505072041 | 65 | 188 | 3.0 | 5.0 | 0.00 | 0.00 | 0.00 | 69 | 1000.9 |
| 20260505071536 | 65 | 250 | 5.0 | 6.0 | 0.00 | 0.00 | 0.00 | 68 | 1000.6 |
| 20260505071035 | 65 | 219 | 5.0 | 7.0 | 0.00 | 0.00 | 0.00 | 68 | 1000.9 |
| 20260505070531 | 66 | 189 | 6.0 | 9.0 | 0.00 | 0.00 | 0.00 | 67 | 1000.7 |
| 20260505070027 | 66 | 200 | 8.0 | 13.0 | 0.00 | 0.00 | 0.00 | 66 | 1000.8 |
| 20260505065523 | 66 | 236 | 6.0 | 7.0 | 0.00 | 0.00 | 0.00 | 66 | 1000.8 |
| 20260505065020 | 66 | 196 | 8.0 | 10.0 | 0.00 | 0.00 | 0.00 | 65 | 1000.8 |
| 20260505064517 | 66 | 223 | 5.0 | 6.0 | 0.00 | 0.00 | 0.00 | 65 | 1001.0 |
| 20260505064016 | 66 | 223 | 6.0 | 7.0 | 0.00 | 0.00 | 0.00 | 65 | 1000.9 |
| 20260505063513 | 66 | 229 | 10.0 | 15.0 | 0.00 | 0.00 | 0.00 | 65 | 1000.9 |
| 20260505063008 | 66 | 218 | 3.0 | 5.0 | 0.00 | 0.00 | 0.00 | 66 | 1000.8 |
| 20260505062505 | 66 | 212 | 5.0 | 7.0 | 0.00 | 0.00 | 0.00 | 66 | 1001.1 |
| 20260505062002 | 65 | 205 | 8.0 | 9.0 | 0.00 | 0.00 | 0.00 | 66 | 1001.0 |
| 20260505061500 | 65 | 192 | 7.0 | 10.0 | 0.00 | 0.00 | 0.00 | 67 | 1001.0 |
| 20260505060957 | 65 | 203 | 5.0 | 6.0 | 0.00 | 0.00 | 0.00 | 67 | 1001.1 |
| 20260505060454 | 65 | 187 | 7.0 | 7.0 | 0.00 | 0.00 | 0.00 | 67 | 1001.2 |
| 20260505055951 | 65 | 212 | 6.0 | 9.0 | 0.00 | 0.00 | 0.00 | 67 | 1001.1 |
| 20260505055446 | 65 | 192 | 5.0 | 8.0 | 0.00 | 0.00 | 0.00 | 68 | 1001.1 |
| 20260505054944 | 65 | 226 | 7.0 | 9.0 | 0.00 | 0.00 | 0.00 | 68 | 1001.2 |
| 20260505054441 | 65 | 197 | 3.0 | 3.0 | 0.00 | 0.00 | 0.00 | 69 | 1001.3 |
| 20260505053939 | 65 | 203 | 6.0 | 9.0 | 0.00 | 0.00 | 0.00 | 69 | 1001.5 |
| 20260505053436 | 65 | 199 | 5.0 | 7.0 | 0.00 | 0.00 | 0.00 | 69 | 1001.5 |
| 20260505052932 | 64 | 187 | 8.0 | 11.0 | 0.00 | 0.00 | 0.00 | 69 | 1001.5 |
| 20260505052429 | 65 | 219 | 4.0 | 5.0 | 0.00 | 0.00 | 0.00 | 69 | 1001.7 |
| 20260505051927 | 64 | 191 | 9.0 | 13.0 | 0.00 | 0.00 | 0.00 | 69 | 1001.4 |
| 20260505051423 | 64 | 201 | 7.0 | 9.0 | 0.00 | 0.00 | 0.00 | 69 | 1001.9 |
| 20260505050922 | 64 | 204 | 2.0 | 2.0 | 0.00 | 0.00 | 0.00 | 69 | 1001.7 |
| 20260505050420 | 64 | 208 | 3.0 | 3.0 | 0.00 | 0.00 | 0.00 | 69 | 1001.6 |